Find Starlink 34903

NORAD ID: 65372 Int'l Des: 2025-190 Owner: SPXS Country: US Constellation: starlink operational
LEOCIRCULAR

当前视图

正在加载3D地球...

About Starlink 34903

Starlink 34903 (NORAD 65372) is a starlink constellation satellite (v2 mini) launched Aug 28, 2025 by SPXS of US. It operates in LEO, CIRCULAR orbit with a mass of 575.00 kg.

关于 Starlink 34903

正在加载描述...

即将过境

Passes for default location (London). Set your location on the main map for personalized predictions.

高度历史

Loading altitude history...

两行轨道根数

1 65372U 25190X 26174.93182617 .00029351 00000-0 99896-3 0 9991
2 65372 53.1596 34.5217 0001109 95.0378 265.0749 15.30208156 46025
Epoch: Jun 23, 2026 • Age: 23 hours

当前状态

高度 489.1 km
速度 7.62 km/s
星下点 -40.87°S, 17.24°E
发射日期 Aug 28, 2025
运行时间 0.8 years
类型 internet

技术详情

分类 Payload
质量 575.00 kg
干质量 530.00 kg
总质量 575.00 kg
长度 0.30 m
直径 4.10 m
跨度 29.00 m
形状 Box + pan
制造商 SPXS
平台类型 Starlink V2MO
阶段状态 In Orbit
所有者/国家 SPXS/US

Most Searched